[[{"header":{"parameterUnit":"m.s-1","parameterCategory":1,"la1":30.2991,"la2":30.254,"lo1":-89.0895,"lo2":-89.0444,"dy":0.0017,"dx":0.0017,"nx":28,"ny":28,"refTime":"2024-08-10T03:00:00:Z","depth":0,"parameterNumber":2,"parameterNumberName":"U-component_of_WINDS"},"data":[0,0,0,0,0,0,0,0,0,0,0,0,0,0,0,0,0,0,0,0,0,0,0,0,0,0,0,0,0,0,0,0,0,0,0,0,0,0,0,0,0,0,0,0,0,0,0,0,0,0,0,0,0,0,0,0,0,0,0.0127,0.0128,0,0.0218,0.0219,0.0221,0.0288,0.0288,0.0289,0.029,0.0384,0.0386,0.0388,0,0,0,0,0,0,0,0,0,0,0,0,0,0.0013,0.0015,0.0127,0.0128,0.013,0.0218,0.022,0.0221,0.0288,0.0288,0.0289,0.029,0.0384,0.0386,0.0388,0,0,0,0,0,0,0,0,0,0,0,0,0,0.0079,0.0016,0.0127,0.0174,0.0179,0.0218,0.022,0.0221,0.0288,0.0288,0.0289,0.029,0.0383,0.0386,0.0389,0.039,0,0,0.0398,0.0399,0,0,0,0,0,0,0,0,0.0076,0.0083,0.0166,0.017,0.0176,0.0243,0.0214,0.0278,0.0287,0.0246,0.029,0.0291,0.0337,0.0343,0.0359,0.0394,0.0398,0.0398,0.04,0.0401,0.0402,0,0,0,0,0,0,0,0.0071,0.008,0.0163,0.0167,0.0173,0.0191,0.0201,0.0226,0.0285,0.025,0.0255,0.0265,0.034,0.0356,0.0361,0.0399,0.0398,0.0401,0.0402,0.0404,0.044,0.044,0,0,0,0,0,0,0.0059,0.0076,0.0161,0.0166,0.0127,0.0192,0.0204,0.022,0.0285,0.0296,0.0264,0.0268,0.035,0.0358,0.0365,0.037,0.0401,0.0404,0.0406,0.0441,0.044,0.0439,0,0,0,0,0,0,0.0056,0.0066,0.0157,0.0122,0.0135,0.0193,0.0211,0.0222,0.0238,0.0296,0.0307,0.0269,0.0351,0.0361,0.0383,0.0374,0.0405,0.0408,0.0442,0.0441,0.044,0.038,0,0,0,0,0,0,0.0052,0.0064,0.0065,0.0122,0.0137,0.0172,0.0211,0.0223,0.0243,0.0248,0.0304,0.0314,0.0353,0.0378,0.0386,0.0379,0.041,0.0443,0.0442,0.044,0.0383,0.0377,0.0371,0,0,0,0,0,0.0048,0.0044,0.0064,0.0074,0.0138,0.0172,0.018,0.0224,0.0242,0.0243,0.028,0.0312,0.0374,0.038,0.0389,0.0383,0.0444,0.0442,0.044,0.0385,0.0378,0.0372,0,0,0,0,0,0,-0.0015,0.0053,0.0075,0.009,0.0124,0.0183,0.0186,0.0215,0.0246,0.025,0.0304,0.0316,0.0332,0.036,0.0365,0.0387,0.0413,0.0413,0.0368,0.0361,0.0356,0.0348,0.0413,0,0,0,0,0,-0.0027,-0.0006,0.0052,0.0059,0.0075,0.0127,0.0144,0.0175,0.0213,0.0228,0.0267,0.0303,0.0331,0.0348,0.0377,0.0388,0.0401,0.0388,0.0382,0.0377,0.0376,0.0384,0.0379,0.0433,0.0433,0.0433,0,0,-0.0052,-0.0013,-0.0003,0.0048,0.0078,0.0099,0.0139,0.016,0.0176,0.0231,0.0254,0.0284,0.0328,0.0344,0.0354,0.0368,0.0364,0.0375,0.0371,0.0372,0.0382,0.0376,0.0372,0.0432,0.0432,0.0433,0,0,-0.0087,-0.0055,-0.0046,-0.0016,0.0029,0.0064,0.0066,0.012,0.0142,0.0166,0.0208,0.0228,0.0275,0.0305,0.0326,0.0302,0.0333,0.031,0.028,0.0287,0.0283,0.0279,0.027,0.0266,0.0309,0.0309,0.0309,0,-0.0124,-0.0092,-0.0045,-0.0027,-0.0006,0.0045,0.0055,0.0082,0.0134,0.0148,0.0164,0.0223,0.0256,0.028,0.0274,0.029,0.0294,0.0304,0.0279,0.0276,0.0274,0.0266,0.0262,0.0306,0.0306,0.0307,0.0307,0,-0.014,-0.0118,-0.0115,-0.0067,-0.0045,-0.0031,0.0018,0.0035,0.0064,0.0097,0.0121,0.0163,0.0201,0.0209,0.0238,0.0237,0.0245,0.0269,0.0296,0.0265,0.0258,0.0256,0.0302,0.0303,0.0304,0.0304,0,0,-0.0213,-0.0138,-0.0138,-0.0115,-0.0061,-0.0043,-0.0026,0.001,0.0023,0.0058,0.0073,0.0112,0.0134,0.0158,0.0192,0.0198,0.0176,0.0222,0.0223,0.0211,0.0177,0.0157,0.0153,0.0197,0.0196,0.0196,0.0173,0,-0.0241,-0.0209,-0.0166,-0.0149,-0.0128,-0.0079,-0.0064,-0.0029,0.0003,0.0026,0.0061,0.0087,0.0116,0.013,0.0139,0.0176,0.0169,0.0179,0.0211,0.0212,0.0197,0.015,0.0129,0.0105,0.0171,0.017,0.017,0,-0.0269,-0.0237,-0.0219,-0.0166,-0.0155,-0.0143,-0.0106,-0.0085,-0.0044,-0.0021,0.0006,0.0041,0.0062,0.0087,0.0116,0.0121,0.0137,0.0158,0.0158,0.0162,0.0188,0.0151,0.0098,0.0094,0.0167,0.0167,0.0167,0,-0.0326,-0.0278,-0.0261,-0.0242,-0.018,-0.0173,-0.0147,-0.0105,-0.0086,-0.0053,-0.0039,-0.0004,0.0015,0.0041,0.0086,0.01,0.011,0.0138,0.0129,0.0128,0.0128,0.0127,0.0076,0.014,0.014,0.014,0.014,0,-0.0361,-0.0352,-0.0285,-0.0275,-0.0262,-0.0212,-0.0201,-0.017,-0.0133,-0.0115,-0.007,-0.0054,0.0004,0.0027,0.0063,0.0081,0.009,0.0109,0.0118,0.0104,0.0101,0.0114,0.0117,0.0139,0.0139,0.0139,0.014,0,-0.0423,-0.0378,-0.0356,-0.0299,-0.0284,-0.0278,-0.0229,-0.0216,-0.0182,-0.016,-0.0151,-0.0097,-0.0068,-0.002,0.0023,0.0047,0.0059,0.0075,0.0044,0.005,0.0037,0.0037,-0.0008,-0.0012,0.0055,0.0054,0.0054,0,-0.045,-0.0441,-0.0384,-0.0369,-0.0344,-0.0321,-0.0301,-0.025,-0.0231,-0.0184,-0.0177,-0.0144,-0.0115,-0.0071,-0.0027,0.0007,0.0023,0.0005,0.0028,0.0014,0.0022,0.002,0.0021,-0.0001,-0.0002,-0.0003,-0.0003,0,-0.0502,-0.048,-0.0453,-0.0419,-0.0396,-0.0367,-0.0335,-0.0325,-0.0267,-0.0248,-0.0218,-0.0195,-0.0151,-0.0119,-0.0079,-0.0051,-0.0018,-0.0011,-0.0012,-0.0026,-0.0044,-0.0036,0.0028,-0.0011,-0.001,-0.0009,-0.0009,-0.0009,-0.0547,-0.0537,-0.0495,-0.0467,-0.0438,-0.0409,-0.0395,-0.0358,-0.0332,-0.0293,-0.0264,-0.0236,-0.0194,-0.0137,-0.0111,-0.0088,-0.0073,-0.0074,-0.0074,-0.0075,-0.0081,-0.0047,-0.008,-0.008,-0.008,-0.0079,-0.0079,0,-0.0598,-0.0568,-0.0542,-0.0499,-0.0477,-0.0447,-0.041,-0.0394,-0.0369,-0.0334,-0.0306,-0.0271,-0.024,-0.0193,-0.0158,-0.0149,-0.0133,-0.0141,-0.0142,-0.0136,-0.0096,-0.0099,-0.0155,-0.0155,-0.0155,-0.0155,-0.0155,-0.0155,-0.0621,-0.0604,-0.0577,-0.0544,-0.0514,-0.0486,-0.0467,-0.044,-0.0412,-0.0375,-0.0349,-0.0319,-0.0278,-0.024,-0.021,-0.0197,-0.0186,-0.02,-0.0183,-0.0146,-0.0139,-0.0132,-0.0135,-0.0198,-0.0198,-0.0225,-0.0226,-0.0226]},{"header":{"parameterUnit":"m.s-1","parameterCategory":1,"la1":30.2991,"la2":30.254,"lo1":-89.0895,"lo2":-89.0444,"dy":0.0017,"dx":0.0017,"nx":28,"ny":28,"refTime":"2024-08-10T03:00:00:Z","depth":0,"parameterNumber":3,"parameterNumberName":"V-component_of_WINDS"},"data":[0,0,0,0,0,0,0,0,0,0,0,0,0,0,0,0,0,0,0,0,0,0,0,0,0,0,0,0,0,0,0,0,0,0,0,0,0,0,0,0,0,0,0,0,0,0,0,0,0,0,0,0,0,0,0,0,0,0,-0.6471,-0.647,0,-0.6445,-0.6445,-0.6445,-0.6451,-0.6451,-0.6452,-0.6452,-0.6423,-0.6422,-0.6421,0,0,0,0,0,0,0,0,0,0,0,0,0,-0.6523,-0.6522,-0.6471,-0.647,-0.647,-0.6445,-0.6445,-0.6444,-0.6451,-0.6451,-0.6452,-0.6452,-0.6424,-0.6422,-0.6421,0,0,0,0,0,0,0,0,0,0,0,0,0,-0.6499,-0.6522,-0.6471,-0.647,-0.647,-0.6445,-0.6445,-0.6444,-0.645,-0.6451,-0.6452,-0.6453,-0.6424,-0.6422,-0.642,-0.6394,0,0,-0.6415,-0.6414,0,0,0,0,0,0,0,0,-0.6501,-0.6497,-0.647,-0.647,-0.647,-0.6452,-0.6453,-0.6427,-0.645,-0.6458,-0.6452,-0.6453,-0.6432,-0.643,-0.6423,-0.6393,-0.6391,-0.6415,-0.6414,-0.6413,-0.6412,0,0,0,0,0,0,0,-0.6502,-0.6498,-0.646,-0.647,-0.647,-0.6471,-0.6468,-0.6448,-0.6441,-0.6457,-0.6458,-0.6455,-0.6432,-0.6425,-0.6422,-0.6391,-0.6415,-0.6413,-0.6412,-0.6411,-0.634,-0.6339,0,0,0,0,0,0,-0.6504,-0.65,-0.6461,-0.646,-0.6487,-0.6469,-0.6466,-0.6457,-0.6441,-0.6439,-0.6454,-0.6455,-0.6428,-0.6425,-0.6421,-0.6391,-0.6413,-0.6411,-0.641,-0.6341,-0.634,-0.6339,0,0,0,0,0,0,-0.6506,-0.6501,-0.6462,-0.648,-0.6475,-0.6467,-0.6457,-0.6456,-0.6449,-0.6439,-0.6437,-0.6448,-0.6428,-0.6424,-0.6402,-0.639,-0.641,-0.6408,-0.6342,-0.6341,-0.6339,-0.633,0,0,0,0,0,0,-0.6507,-0.6501,-0.6491,-0.648,-0.6474,-0.6443,-0.6456,-0.6455,-0.6446,-0.6447,-0.6433,-0.6431,-0.6428,-0.6404,-0.64,-0.6388,-0.6407,-0.6343,-0.6341,-0.634,-0.6331,-0.6328,-0.6326,0,0,0,0,0,-0.6509,-0.6488,-0.6491,-0.6486,-0.6462,-0.6443,-0.6439,-0.6437,-0.6445,-0.6435,-0.6429,-0.6432,-0.6392,-0.6402,-0.6397,-0.6385,-0.6343,-0.6342,-0.634,-0.6332,-0.6329,-0.6326,0,0,0,0,0,0,-0.6498,-0.6487,-0.6489,-0.6465,-0.6455,-0.6444,-0.6431,-0.6433,-0.642,-0.6422,-0.6419,-0.6415,-0.6393,-0.6386,-0.6397,-0.6359,-0.6369,-0.6366,-0.6365,-0.6362,-0.6359,-0.6362,-0.6405,0,0,0,0,0,-0.6493,-0.6479,-0.647,-0.6449,-0.6444,-0.6438,-0.643,-0.6429,-0.6418,-0.6414,-0.6406,-0.6395,-0.638,-0.637,-0.6356,-0.633,-0.6328,-0.6319,-0.6317,-0.6315,-0.6312,-0.63,-0.6297,-0.6333,-0.6333,-0.6333,0,0,-0.6481,-0.6474,-0.6465,-0.6446,-0.6439,-0.6424,-0.6435,-0.6418,-0.6408,-0.6411,-0.639,-0.6384,-0.6371,-0.6348,-0.6337,-0.6341,-0.6302,-0.6312,-0.6311,-0.631,-0.6298,-0.6295,-0.6292,-0.6332,-0.6332,-0.6333,0,0,-0.6454,-0.6446,-0.643,-0.6422,-0.6411,-0.6408,-0.6404,-0.6393,-0.6389,-0.6368,-0.6371,-0.6358,-0.6332,-0.6324,-0.6316,-0.6288,-0.6291,-0.6283,-0.6271,-0.6259,-0.6256,-0.6253,-0.6245,-0.6242,-0.6281,-0.6281,-0.6281,0,-0.6442,-0.6421,-0.642,-0.6405,-0.6397,-0.6401,-0.6384,-0.6376,-0.636,-0.6355,-0.636,-0.633,-0.6321,-0.6296,-0.629,-0.6283,-0.6279,-0.6285,-0.6257,-0.6254,-0.6252,-0.6244,-0.624,-0.628,-0.628,-0.628,-0.628,0,-0.6407,-0.6393,-0.638,-0.6367,-0.6358,-0.6341,-0.6338,-0.6329,-0.6329,-0.6325,-0.6305,-0.6295,-0.628,-0.6274,-0.6273,-0.625,-0.6253,-0.6257,-0.6267,-0.6248,-0.624,-0.6237,-0.6279,-0.6279,-0.6279,-0.628,0,0,-0.6372,-0.636,-0.6356,-0.6351,-0.6339,-0.6328,-0.6312,-0.6299,-0.6291,-0.628,-0.6268,-0.6247,-0.6251,-0.6243,-0.6241,-0.623,-0.6211,-0.6236,-0.6236,-0.6233,-0.6187,-0.6185,-0.6181,-0.6213,-0.6212,-0.6211,-0.6188,0,-0.6346,-0.6319,-0.6319,-0.6295,-0.6282,-0.6286,-0.6273,-0.6264,-0.626,-0.6249,-0.6244,-0.623,-0.6236,-0.6232,-0.6221,-0.6216,-0.6202,-0.6217,-0.6201,-0.6201,-0.6206,-0.6177,-0.6174,-0.6153,-0.6185,-0.6185,-0.6184,0,-0.6311,-0.6302,-0.6277,-0.6269,-0.6264,-0.6252,-0.6241,-0.6229,-0.622,-0.6218,-0.6209,-0.621,-0.6194,-0.6204,-0.6182,-0.6193,-0.6186,-0.6182,-0.6181,-0.6181,-0.6192,-0.6177,-0.6146,-0.6143,-0.6179,-0.618,-0.618,0,-0.6291,-0.6271,-0.6254,-0.625,-0.624,-0.6231,-0.6227,-0.6218,-0.6211,-0.62,-0.6196,-0.6183,-0.6176,-0.6166,-0.6163,-0.6171,-0.6143,-0.6152,-0.6141,-0.6141,-0.6136,-0.6136,-0.6105,-0.6129,-0.6129,-0.6129,-0.6129,0,-0.6263,-0.6248,-0.6246,-0.6235,-0.6219,-0.6218,-0.6202,-0.6197,-0.619,-0.6179,-0.6181,-0.617,-0.6167,-0.6155,-0.6153,-0.6136,-0.6133,-0.6131,-0.6131,-0.6132,-0.6132,-0.6128,-0.613,-0.6128,-0.6128,-0.6129,-0.6129,0,-0.6237,-0.6235,-0.6218,-0.621,-0.6208,-0.6197,-0.619,-0.618,-0.6177,-0.6163,-0.616,-0.6155,-0.6142,-0.6138,-0.6122,-0.612,-0.6102,-0.6102,-0.6105,-0.6106,-0.6096,-0.6097,-0.6061,-0.6057,-0.6083,-0.6083,-0.6083,0,-0.622,-0.6209,-0.6201,-0.6195,-0.619,-0.6179,-0.6172,-0.6171,-0.6164,-0.6153,-0.6145,-0.6133,-0.6123,-0.6102,-0.6096,-0.6085,-0.6085,-0.6074,-0.6083,-0.6085,-0.6087,-0.6088,-0.6088,-0.6072,-0.6072,-0.6072,-0.6071,0,-0.6191,-0.6191,-0.6181,-0.6172,-0.6164,-0.6156,-0.6148,-0.6142,-0.614,-0.6132,-0.6119,-0.6112,-0.6097,-0.6085,-0.6073,-0.6067,-0.6069,-0.6068,-0.6066,-0.6067,-0.607,-0.607,-0.6102,-0.6069,-0.607,-0.607,-0.607,-0.607,-0.617,-0.6161,-0.6155,-0.6145,-0.6139,-0.6133,-0.6124,-0.612,-0.611,-0.6099,-0.6098,-0.6085,-0.6077,-0.6062,-0.6056,-0.6046,-0.6049,-0.6044,-0.6044,-0.6043,-0.6043,-0.6071,-0.6043,-0.6043,-0.6043,-0.6043,-0.6043,0,-0.6142,-0.6139,-0.6129,-0.612,-0.6112,-0.6115,-0.6107,-0.61,-0.6089,-0.6082,-0.6073,-0.6059,-0.6048,-0.6042,-0.6031,-0.6024,-0.6025,-0.6021,-0.6022,-0.6021,-0.604,-0.6044,-0.6021,-0.6021,-0.6021,-0.6021,-0.6021,-0.6021,-0.6127,-0.6113,-0.6112,-0.6096,-0.6092,-0.608,-0.6076,-0.607,-0.6064,-0.605,-0.6041,-0.6037,-0.6031,-0.6019,-0.6009,-0.6008,-0.6004,-0.6001,-0.6,-0.6017,-0.602,-0.6022,-0.6026,-0.5999,-0.5999,-0.5982,-0.5982,-0.5982]}]]